Location: Austin
(30.3000°N, 97.7500°W)
Time: 06:17:24
(UTC-05:00)

UNK - Pass Details

Date: 16 June 2025
Orbit: 655 x 674 km, 98.4° (Epoch: 07 July)

Event Time Altitude Azimuth Distance (km) Brightness Sun altitude
Rises 05:50:29 0° 178° (S) 2,978 6.7 -8.0°
Reaches altitude 10° 05:52:45 10° 184° (S) 2,066 5.9 -7.6°
Maximum altitude 05:57:08 50° 259° (W) 832 3.9 -6.8°
Drops below altitude 10° 06:01:31 10° 336° (NNW) 2,070 6.4 -6.0°
Sets 06:03:48 0° 341° (NNW) 2,984 7.2 -5.6°
